Regional Weather Roundup
Issued by NWS

Home | Current Version | Previous Version | Graphics & Text | Print | Product List | Glossary On
Versions: 1 2 3 4 5 6 7 8 9 10 11 12 13 14 15 16 17 18 19 20 21 22 23 24 25 26 27 28 29 30 31 32 33 34 35 36 37 38 39 40 41 42 43 44 45 46 47 48 49 50
000
ASUS44 KMEG 212210
RWRTN
TENNESSEE HOURLY STATE WEATHER ROUNDUP
NATIONAL WEATHER SERVICE MEMPHIS TN
500 PM CDT TUE OCT 21 2014

TNZ002-004-019-021-049-052-054-088>092-212300-
WEST TENNESSEE

CITY           SKY/WX    TMP DP  RH WIND       PRES   REMARKS
MEMPHIS INTL   SUNNY     74  43  32 N7        30.05S
NWS MEMPHIS      N/A     73 N/A N/A MISG        N/A
JACKSON        SUNNY     73  46  38 N8        30.04S
DYERSBURG      SUNNY     72  43  35 N8        30.06S
UNION CITY     SUNNY     70  45  40 N7        30.04S
PARIS          SUNNY     68  46  45 N6        30.05S
LEXINGTON      SUNNY     72  45  37 N8        30.02F
SAVANNAH       SUNNY     72  48  43 N8        30.03F
$$

TNZ008-025-027-028-033-062-065-066-212300-
NORTH MIDDLE TENNESSEE

CITY           SKY/WX    TMP DP  RH WIND       PRES   REMARKS
NASHVILLE      MOSUNNY   70  43  37 NW10G18   30.03S
CLARKSVILLE    SUNNY     68  45  43 N12       30.05R
SMYRNA         SUNNY     70  46  42 N13       30.03S
COOKEVILLE     SUNNY     64  48  55 VRB3      30.03R
CROSSVILLE     MOSUNNY   63  43  48 NW7G17    30.04R
$$

TNZ061-075-076-078-094-096-097-212300-
SOUTH MIDDLE TENNESSEE

CITY           SKY/WX    TMP DP  RH WIND       PRES   REMARKS
FAYETTEVILLE   SUNNY     68  45  42 N10G24    30.02R
TULLAHOMA      SUNNY     66  43  42 N8        30.03S
WINCHESTER     SUNNY     66  46  48 N7        30.02S
MCMINNVILLE    SUNNY     66  48  52 CALM      30.02S
COLUMBIA       SUNNY     72  46  40 N6        30.01S
SHELBYVILLE    SUNNY     70  46  43 N12       30.03S
$$

TNZ017-018-042-046-047-212300-
NORTHEAST TENNESSEE

CITY           SKY/WX    TMP DP  RH WIND       PRES   REMARKS
TRI CITIES     MOCLDY    57  40  52 N10       30.00R
ELIZABETHTON   CLOUDY    55  37  50 NW9       29.99R
$$

TNZ012-013-036-069-073-074-212300-
CENTRAL EAST TENNESSEE

CITY           SKY/WX    TMP DP  RH WIND       PRES   REMARKS
KNOXVILLE      PTCLDY    66  43  43 NW8       29.99R
OAK RIDGE      PTCLDY    66  42  41 N8        30.02R
GATLINBURG     PTCLDY    63  41  45 N9        29.99R
MORRISTOWN     CLEAR     61  43  51 NW10      30.01R
$$

TNZ083-085-099-212300-
SOUTHEAST TENNESSEE

CITY           SKY/WX    TMP DP  RH WIND       PRES   REMARKS
CHATTANOOGA    MOSUNNY   71  44  37 N10       29.99S
$$

SKY/WX REPORTED AS FAIR MEANS FEW OR NO CLOUDS BELOW
12 THOUSAND FEET.




USA.gov is the U.S. government's official web portal to all federal, state and local government web resources and services.